Regional Weather Roundup
Issued by NWS

Home | Current Version | Previous Version | Graphics & Text | Print | Product List | Glossary Off
Versions: 1 2 3 4 5 6 7 8 9 10 11 12 13 14 15 16 17 18 19 20 21 22 23 24 25 26 27 28 29 30

000
ASUS43 KDMX 220607
RWRIA

WEATHER ROUNDUP FOR IOWA
NATIONAL WEATHER SERVICE DES MOINES IA
100 AM CDT WED OCT 22 2014

NOTE: "FAIR" INDICATES FEW OR NO CLOUDS BELOW 12,000 FEET WITH NO
SIGNIFICANT WEATHER AND/OR OBSTRUCTIONS TO VISIBILITY.

* - THESE STATIONS ARE NOT NWS STATIONS...THUS NOT UNDER NWS
QUALITY CONTROL.  THEY ALSO DO NOT REPORT WEATHER SUCH
AS PRECIPITATION OR FOG.

IAZ001>003-012>014-020>022-031>034-043>046-220700-
   NORTHWEST IOWA

CITY           SKY/WX    TMP DP  RH WIND       PRES   REMARKS
CARROLL *      CLEAR     45  41  87 SE7       30.13S
CHEROKEE *     CLEAR     50  44  79 SE10G16   30.09S
DENISON *      CLOUDY    52  45  76 SE13G18   30.08S
LE MARS *      CLEAR     54  45  71 SE14      30.05F
ORANGE CITY *  PTCLDY    54  45  71 SE9       30.06F
SHELDON *      CLEAR     52  43  71 SE15G22   30.06S
SIOUX CITY     CLEAR     50  44  80 SE9       30.05F
6HR MIN TEMP:  50; 6HR MAX TEMP:  67;

SPENCER        CLEAR     48  40  73 SE15      30.11S
6HR MIN TEMP:  48; 6HR MAX TEMP:  60;

STORM LAKE *   CLEAR     48  43  81 SE15      30.11S
$$

IAZ055>058-069>071-079>083-090>094-220700-
   SOUTHWEST IOWA

CITY           SKY/WX    TMP DP  RH WIND       PRES   REMARKS
ATLANTIC *     CLOUDY    55  45  67 SE8       30.12R
AUDUBON *      MOCLDY    48  43  81 SE6       30.14R
CLARINDA *     CLOUDY    55  45  67 SE8       30.13S
COUNCIL BLFS * CLOUDY    55  46  71 SE16G23   30.07S
CRESTON *      PTCLDY    48  43  81 SE9       30.15S
HARLAN  *      MOCLDY    54  46  76 SE10      30.14S
LAMONI         CLEAR     49  41  74 SE5       30.16S
6HR MIN TEMP:  49; 6HR MAX TEMP:  60;

RED OAK *      CLOUDY    55  45  67 SE7       30.11S
SHENANDOAH *   CLOUDY    57  46  67 SE13G21   30.10F
$$

IAZ047>049-059>061-072>074-084-220700-
   CENTRAL IOWA

CITY           SKY/WX    TMP DP  RH WIND       PRES   REMARKS
AMES           CLEAR     45  38  76 SE8       30.18S
6HR MIN TEMP:  43; 6HR MAX TEMP:  53;

ANKENY *       CLEAR     46  39  76 SE7       30.18S
CHARITON *     CLEAR     46  41  81 SE9       30.17S
DES MOINES     CLEAR     50  39  66 SE9       30.18R
6HR MIN TEMP:  50; 6HR MAX TEMP:  60;

GRINNELL*      CLEAR     42  37  83 E7        30.21R
KNOXVILLE *    CLEAR     45  39  81 SE8       30.18R
MARSHALLTOWN   CLEAR     40  36  86 E7        30.20R
6HR MIN TEMP:  39; 6HR MAX TEMP:  52;

PELLA *        CLEAR     44  38  79 SE6       30.21R
PERRY *          N/A     45  41  87 SE7       30.16S
$$

IAZ004>006-015-016-023>025-035-036-220700-
   NORTH CENTRAL IOWA

CITY           SKY/WX    TMP DP  RH WIND       PRES   REMARKS
ALGONA *       CLEAR     46  39  76 SE12G17   30.15S
CLARION *      CLEAR     45  39  81 SE12G18   30.17R
ESTHERVILLE    CLEAR     46  39  76 S15       30.12S
6HR MIN TEMP:  46; 6HR MAX TEMP:  56;

FORT DODGE *   CLEAR     48  37  66 SE10G17   30.16S
MASON CITY     CLEAR     41  37  86 SE10      30.20S
6HR MIN TEMP:  41; 6HR MAX TEMP:  52;

FOREST CITY *  CLEAR     43  37  81 SE10      30.18R
IOWA FALLS *     N/A     41  37  87 SE6       30.20R
$$

IAZ007>011-017>019-026>030-037>042-050>054-066-220700-
   NORTHEAST IOWA

CITY           SKY/WX    TMP DP  RH WIND       PRES   REMARKS
CEDAR RAPIDS   CLEAR     39  37  92 E6        30.23R WCI  35
6HR MIN TEMP:  39; 6HR MAX TEMP:  49;

CHARLES CITY * CLEAR     43  37  81 SE9       30.22S
CLINTON *      CLEAR     36  32  87 E7        30.29S WCI  30
DECORAH *      CLEAR     39  37  93 SE8       30.24R WCI  34
DUBUQUE        CLEAR     36  34  92 E3        30.26S
6HR MIN TEMP:  36; 6HR MAX TEMP:  46;

MONTICELLO *   MIX PCPN  41  37  87 E9        30.25F
OELWEIN *      CLEAR     41  37  87 SE10      30.24S
WATERLOO       CLEAR     42  37  82 SE9       30.22S
6HR MIN TEMP:  42; 6HR MAX TEMP:  50;

$$

IAZ064-065-067-068-078-220700-
   EAST CENTRAL IOWA

CITY           SKY/WX    TMP DP  RH WIND       PRES   REMARKS
DAVENPORT      CLEAR     38  33  82 E7        30.26S WCI  33
6HR MIN TEMP:  37; 6HR MAX TEMP:  48;

IOWA CITY      CLEAR     43  38  82 E6        30.25S
6HR MIN TEMP:  43; 6HR MAX TEMP:  54;

MT. PLEASANT * CLEAR     42  38  87 E7        30.23S
MUSCATINE *    CLEAR     43  37  81 CALM      30.26S
QUAD CITIES    CLEAR     37  33  85 E7        30.26S WCI  32
6HR MIN TEMP:  37; 6HR MAX TEMP:  47;

$$

IAZ062-063-075>077-085>089-095>099-220700-
   SOUTHEAST IOWA

CITY           SKY/WX    TMP DP  RH WIND       PRES   REMARKS
BURLINGTON     CLEAR     44  39  82 E8        30.23S
6HR MIN TEMP:  44; 6HR MAX TEMP:  54;

FAIRFIELD *    CLEAR     39  36  87 E8        30.22S WCI  34
FORT MADISON * CLEAR     46  43  87 E8        30.24R HAZE
KEOKUK *       MIX PCPN  45  39  81 E13       30.22S
OSKALOOSA *      N/A     43  38  80 SE8       30.21S
CENTERVILLE *  CLEAR     45  39  81 E7        30.20S
WASHINGTON *   CLEAR     41  39  93 E6        30.23S
$$

ABBREVIATIONS USED IN REMARKS
   TC - TEMPERATURES IN CELSIUS
  WCI - WIND CHILL INDEX
   HX - HEAT INDEX
  VSB - VISIBILITY
$$




USA.gov is the U.S. government's official web portal to all federal, state and local government web resources and services.